Погода в Бродецком

Украина / Винницкая область     49°45′27″N   28°37′25″E
темп.,
°C
ветер,
м/с
пор.,
м/с
влажн.,
%
обл.,
%
осадки,
мм/ч
давл.,
гПа
погр.,
м
4 июля, пн
пн400:00+16юв36882 0.6 101892
03:00+15ююв22775 0.8 101812
06:00+15ю22835 0.0 101817
09:00+21в11590 0.0 1018293
12:00+26юв11484 0.0 10171177
15:00+28ю12405 0.0 10162230
18:00+28в224023 0.0 10151633
21:00+22в00580 0.0 101511
5 июля, вт
вт500:00+19ссв11680 0.0 101611
03:00+18ссз00725 0.0 101611
06:00+17ссз227899 0.0 101615
09:00+23ссз346281 0.0 1016356
12:00+28ссв22475 0.0 10161545
15:00+29с22385 0.0 10152103
18:00+29св223841 0.0 10141780
21:00+23ссв22575 0.0 101414
6 июля, ср
ср600:00+20св347150 0.0 101456
03:00+21юв3462100 0.2 101363
06:00+19вюв227381 0.5 101316
09:00+24ююв1262100 1.2 1012250
12:00+27зсз225279 0.0 1013660
15:00+28ссз4249100 0.0 10121205
18:00+25ссз6561100 0.0 1013904
21:00+19ссз5991100 1.2 1015409
7 июля, чт
чт700:00+15с4897100 0.3 1016392
03:00+14ссз4796100 0.3 1017413
06:00+13ссз4797100 0.1 1017292
09:00+13с3796100 0.5 1017285
12:00+17ссв4577100 0.0 1018590
15:00+21ссв335899 0.0 1017908
18:00+20с3460100 0.0 1016562
21:00+18с356498 0.0 1016136
8 июля, пт
пт800:00+16ссв347097 0.0 101657
03:00+15ссв357750 0.0 101683
06:00+15св347596 0.0 1016107
09:00+18ссв486794 0.0 1016345
12:00+22св5752100 0.0 1016806
15:00+23св674811 0.0 10161076
18:00+23св564821 0.0 1016983
21:00+18ссв487182 0.0 1016158